Regional Weather Roundup
Issued by NWS

Home | Current Version | Previous Version | Graphics & Text | Print | Product List | Glossary On
Versions: 1 2 3 4 5 6 7 8 9 10 11 12 13 14 15 16 17 18 19 20 21 22 23 24 25 26 27 28 29 30 31 32 33 34 35 36 37 38 39 40 41 42 43 44 45 46 47 48 49 50
000
ASUS43 KLSX 291959
RWRMO

WEATHER SUMMARY FOR MISSOURI
NATIONAL WEATHER SERVICE SPRINGFIELD MO
300 PM CDT WED OCT 29 2014

NOTE: "FAIR" INDICATES FEW OR NO CLOUDS BELOW 12,000 FEET WITH NO
       SIGNIFICANT WEATHER AND/OR OBSTRUCTIONS TO VISIBILITY.
       CURRENT SKY AND/OR WEATHER CONDITIONS ARE NOT AVAILABLE FOR
       CHILLICOTHE AND FARMINGTON.

MOZ001>031-035>038-043-044-053-054-292100-
...NORTHERN AND WESTERN MISSOURI...

CITY           SKY/WX    TMP DP  RH WIND       PRES   REMARKS
KANSAS CTY INT SUNNY     60  35  39 N5        30.18F
KANSAS C DTWN  SUNNY     62  32  32 NW3       30.18F
LEE`S SUMMIT   SUNNY     60  30  32 N3        30.19F
ST JOSEPH      SUNNY     58  29  33 CALM      30.18F
KIRKSVILLE     SUNNY     55  35  47 W12       30.17F

$$
MOZ066>068-077>081-088>096-101>105-292100-
...SOUTHWEST MISSOURI...

CITY           SKY/WX    TMP DP  RH WIND       PRES   REMARKS
SPRINGFIELD    SUNNY     64  35  34 N7        30.18F
JOPLIN         SUNNY     65  35  33 CALM      30.20F

$$
MOZ032>034-039>042-045>050-055>058-069>072-292100-
...CENTRAL MISSOURI...

CITY           SKY/WX    TMP DP  RH WIND       PRES   REMARKS
COLUMBIA       SUNNY     58  34  40 W9        30.17F
JEFFERSON CITY SUNNY     59  31  34 NW9       30.18F
ROLLA          SUNNY     58  31  35 W16       30.16F
SEDALIA        SUNNY     59  30  33 NW8       30.20F
OSAGE BEACH    SUNNY     61  30  31 W5        30.18F

$$
MOZ051-052-059>065-292100-
...EAST CENTRAL MISSOURI...

CITY           SKY/WX    TMP DP  RH WIND       PRES   REMARKS
ST LOUIS INTL  MOSUNNY   58  36  43 NW12G18   30.16F
SPIRIT OF STL  SUNNY     58  35  42 NW9       30.15F
ST CHARLES     SUNNY     57  35  43 NW8       30.15F

$$
MOZ072>076-082>087-097>100-106>115-292100-
...SOUTH CENTRAL AND SOUTHEAST MISSOURI...

CITY           SKY/WX    TMP DP  RH WIND       PRES   REMARKS
CAPE GIRARDEAU SUNNY     64  32  30 N15       30.14S
FARMINGTON     SUNNY     61  28  29 W12       30.17F
POPLAR BLUFF   SUNNY     68  29  23 N6        30.13F
WEST PLAINS    SUNNY     65  27  23 NW14      30.18F

$$



USA.gov is the U.S. government's official web portal to all federal, state and local government web resources and services.